CW1309 Weather Reports


Display with metric or nautical units.
time (UTC)temp
F
wind
direction
speed
MPH
gust
MPH
rain 1hr
in
rain 24hr
in
rain mn
in
humidity
%
barometer
mb
20260906150038 86 67 0.0 4.0 0.00 0.00 0.00 88 1015.0
20260906144529 85 197 0.0 4.0 0.00 0.00 0.00 90 1015.0
20260906143022 84 185 2.0 7.0 0.00 0.00 0.00 92 1014.9
20260906141520 84 173 0.0 5.0 0.00 0.00 0.00 92 1014.8
20260906140021 83 179 0.0 3.0 0.00 0.00 0.00 94 1014.8
20260906134536 82 157 1.0 5.0 0.00 0.00 0.00 96 1014.8
20260906133021 81 161 0.0 5.0 0.00 0.00 0.00 97 1014.7
20260906131515 80 172 0.0 1.0 0.00 0.00 0.00 98 1014.5
20260906124511 78 178 0.0 0.0 0.00 0.00 0.00 99 1014.0
20260906123017 78 178 0.0 0.0 0.00 0.00 0.00 99 1013.8
20260906121509 79 178 0.0 0.0 0.00 0.00 0.00 99 1013.5
20260906120008 79 178 0.0 0.0 0.00 0.00 0.00 98 1013.4
20260906114510 79 178 0.0 0.0 0.00 0.00 0.00 98 1013.3
20260906113006 79 178 0.0 0.0 0.00 0.00 0.00 97 1013.4
20260906111505 79 179 0.0 0.0 0.00 0.00 0.00 97 1012.9
20260906110004 79 179 0.0 0.0 0.00 0.00 0.00 97 1012.8
20260906104506 80 180 0.0 0.0 0.00 0.00 0.00 97 1012.7
20260906103002 80 180 0.0 0.0 0.00 0.00 0.00 96 1012.6
20260906101501 80 180 0.0 0.0 0.00 0.00 0.00 96 1012.5
20260906100100 80 180 0.0 0.0 0.00 0.00 0.00 96 1012.4
20260906094559 80 180 0.0 0.0 0.00 0.00 0.00 96 1012.4
20260906093121 80 180 0.0 0.0 0.00 0.00 0.00 95 1012.5
20260906091558 80 180 0.0 0.0 0.00 0.00 0.00 95 1012.6
20260906090056 80 180 0.0 0.0 0.00 0.00 0.00 95 1012.5
20260906084555 80 180 0.0 1.0 0.00 0.00 0.00 95 1012.7
20260906083054 81 180 0.0 1.0 0.00 0.00 0.00 94 1012.6
20260906081552 81 180 0.0 0.0 0.00 0.00 0.00 94 1012.8
20260906080051 81 180 0.0 1.0 0.00 0.00 0.00 94 1012.7
20260906074549 81 182 0.0 1.0 0.00 0.00 0.00 93 1013.0
20260906073047 81 182 0.0 2.0 0.00 0.00 0.00 93 1013.3
20260906071545 81 183 2.0 4.0 0.00 0.00 0.00 92 1013.4
20260906070043 82 153 1.0 3.0 0.00 0.00 0.00 92 1013.5
20260906064541 82 153 1.0 5.0 0.00 0.00 0.00 91 1013.6
20260906063039 82 208 2.0 5.0 0.00 0.00 0.00 91 1013.9
20260906061538 82 155 2.0 6.0 0.00 0.00 0.00 90 1014.0
20260906060037 83 153 2.0 6.0 0.00 0.00 0.00 89 1013.9
20260906054636 83 178 2.0 7.0 0.00 0.00 0.00 88 1013.9
20260906053036 83 173 1.0 5.0 0.00 0.00 0.00 86 1013.9
20260906051533 84 162 2.0 5.0 0.00 0.00 0.00 84 1013.9
20260906050029 84 165 2.0 8.0 0.00 0.00 0.00 83 1013.8
20260906044527 85 163 2.0 8.0 0.00 0.00 0.00 83 1013.8
20260906043027 85 202 3.0 8.0 0.00 0.00 0.00 83 1013.9
20260906041527 86 186 3.0 10.0 0.00 0.00 0.00 84 1013.7
20260906040033 86 167 1.0 4.0 0.00 0.00 0.00 83 1013.5
20260906034529 86 174 3.0 11.0 0.00 0.00 0.00 81 1013.5
20260906033024 87 177 2.0 7.0 0.00 0.00 0.00 80 1013.4
20260906031525 87 169 3.0 5.0 0.00 0.00 0.00 79 1013.2
20260906030023 88 115 2.0 6.0 0.00 0.00 0.00 78 1012.9
20260906024522 88 152 3.0 10.0 0.00 0.00 0.00 78 1012.4
20260906023022 89 143 6.0 14.0 0.00 0.00 0.00 77 1012.1
20260906021522 90 118 4.0 9.0 0.00 0.00 0.00 77 1011.9
20260906020021 90 131 4.0 15.0 0.00 0.00 0.00 75 1011.5
20260906014523 91 92 6.0 13.0 0.00 0.00 0.00 72 1011.4
20260906013027 92 84 6.0 13.0 0.00 0.00 0.00 70 1011.1
20260906011521 93 115 1.0 6.0 0.00 0.00 0.00 68 1011.0
20260906010019 93 97 0.0 4.0 0.00 0.00 0.00 67 1010.9
20260906004518 93 101 0.0 3.0 0.00 0.00 0.00 68 1011.0
20260906003017 94 91 2.0 9.0 0.00 0.00 0.00 68 1010.6
20260906001517 94 122 3.0 12.0 0.00 0.00 0.00 67 1010.6
20260906000016 94 113 4.0 11.0 0.00 0.00 0.00 67 1010.6
20260905234515 95 118 0.0 12.0 0.00 0.00 0.00 66 1010.6
20260905231515 98 71 5.0 12.0 0.00 0.00 0.00 60 1010.3
20260905230014 100 191 1.0 9.0 0.00 0.00 0.00 56 1010.1
20260905224513 100 89 3.0 10.0 0.00 0.00 0.00 54 1010.1
20260905223012 100 153 2.0 7.0 0.00 0.00 0.00 54 1010.0
20260905221513 100 87 2.0 7.0 0.00 0.00 0.00 55 1010.1
20260905220009 100 180 4.0 8.0 0.00 0.00 0.00 55 1010.3
20260905214508 100 157 2.0 5.0 0.00 0.00 0.00 55 1010.4
20260905213008 98 159 4.0 8.0 0.00 0.00 0.00 55 1010.5
20260905211517 99 177 2.0 9.0 0.00 0.00 0.00 55 1010.5
20260905210008 99 219 4.0 8.0 0.00 0.00 0.00 56 1010.7
20260905204503 97 96 3.0 9.0 0.00 0.00 0.00 57 1011.0
20260905203103 99 113 4.0 8.0 0.00 0.00 0.00 57 1011.3
20260905201557 100 175 3.0 9.0 0.00 0.00 0.00 58 1011.8
20260905200103 98 184 3.0 6.0 0.00 0.00 0.00 61 1011.9
20260905194551 97 112 5.0 10.0 0.00 0.00 0.00 61 1012.3
20260905193105 97 63 5.0 9.0 0.00 0.00 0.00 62 1012.5
20260905191546 96 61 1.0 9.0 0.00 0.00 0.00 63 1012.8
20260905190042 96 179 2.0 7.0 0.00 0.00 0.00 64 1013.0
20260905184536 96 205 5.0 8.0 0.00 0.00 0.00 63 1013.4
20260905183036 95 192 6.0 10.0 0.00 0.00 0.00 63 1013.7
20260905181534 95 240 4.0 9.0 0.00 0.00 0.00 64 1014.0
20260905180032 96 144 1.0 7.0 0.00 0.00 0.00 64 1014.3
20260905174529 94 182 1.0 10.0 0.00 0.00 0.00 66 1014.3
20260905173027 93 235 3.0 7.0 0.00 0.00 0.00 69 1014.6
20260905171532 94 133 3.0 8.0 0.00 0.00 0.00 68 1014.9
20260905170019 94 144 2.0 7.0 0.00 0.00 0.00 68 1015.3
20260905164522 92 184 3.0 9.0 0.00 0.00 0.00 71 1015.1
20260905163011 91 108 2.0 10.0 0.00 0.00 0.00 75 1015.1
20260905161608 89 148 3.0 8.0 0.00 0.00 0.00 78 1015.3
20260905160015 89 205 7.0 10.0 0.00 0.00 0.00 79 1015.4
20260905154504 89 128 3.0 10.0 0.00 0.00 0.00 81 1015.3
20260905153001 88 196 2.0 9.0 0.00 0.00 0.00 83 1015.3
20260905151556 86 150 2.0 9.0 0.00 0.00 0.00 85 1015.2